DW0683 Weather Reports


Display with metric or nautical units.
time (UTC)temp
F
wind
direction
speed
MPH
gust
MPH
rain 1hr
in
rain 24hr
in
rain mn
in
humidity
%
barometer
mb
20260507090821 0 0.0 0.0 0.00 0.00 0.00 1014.9
20260507083825 0 0.0 0.0 0.00 0.00 0.00 1014.3
20260507080844 0 0.0 0.0 0.00 0.00 0.00 1014.6
20260507073828 0 0.0 0.0 0.00 0.00 0.00 1014.0
20260507070834 0 0.0 0.0 0.00 0.00 0.00 1014.2
20260507063815 0 0.0 0.0 0.00 0.00 0.00 1014.9
20260507060816 0 0.0 0.0 0.00 0.00 0.00 1015.4
20260507053819 0 0.0 0.0 0.00 0.00 0.00 1015.7
20260507050823 71 286 0.0 0.0 0.00 0.00 0.00 46 1016.1
20260507043822 72 286 0.0 0.0 0.00 0.00 0.00 44 1016.1
20260507040818 72 287 0.0 0.0 0.00 0.00 0.00 44 1016.1
20260507033817 73 287 0.0 0.0 0.00 0.00 0.00 45 1016.0
20260507030814 73 286 0.0 2.0 0.00 0.00 0.00 45 1015.7
20260507023836 74 287 0.0 2.0 0.00 0.00 0.00 48 1015.8
20260507020830 75 286 0.0 0.0 0.00 0.00 0.00 49 1015.8
20260507013826 76 287 0.0 2.0 0.00 0.00 0.00 51 1015.6
20260507010821 76 288 1.0 4.0 0.00 0.00 0.00 52 1015.6
20260507003823 77 280 1.0 2.0 0.00 0.00 0.00 57 1015.6
20260507000829 78 301 0.0 6.0 0.00 0.00 0.00 58 1015.6
20260506233829 80 281 3.0 7.0 0.00 0.00 0.00 57 1015.5
20260506230848 81 307 2.0 5.0 0.00 0.00 0.00 54 1015.3
20260506223830 82 217 3.0 13.0 0.00 0.00 0.00 50 1015.4
20260506220835 83 270 2.0 9.0 0.00 0.00 0.00 51 1015.3
20260506213816 83 272 4.0 10.0 0.00 0.00 0.00 52 1015.5
20260506210831 84 219 3.0 9.0 0.00 0.00 0.00 52 1015.4
20260506203824 85 215 7.0 12.0 0.00 0.00 0.00 52 1015.3
20260506150817 85 146 3.0 8.0 0.00 0.00 0.00 42 1016.8
20260506143842 83 211 0.0 6.0 0.00 0.00 0.00 45 1016.8
20260506140826 82 80 2.0 7.0 0.00 0.00 0.00 44 1016.8
20260506133849 79 178 3.0 11.0 0.00 0.00 0.00 46 1016.8
20260506130817 77 169 3.0 7.0 0.00 0.00 0.00 47 1016.6
20260506123826 73 194 2.0 5.0 0.00 0.00 0.00 47 1016.5
20260506120833 0 0.0 0.0 0.00 0.00 0.00 1016.3